Consulta los datos en tiempo real de la estación municipal de Cànoves i Samalús
| Hora UTC | 01:50 |
|---|---|
| Temperatura | 10.3 ºC |
| Humedad | 97.9 % |
| Presión | 1011.0 hPa |
| Pluja | 0.0 mm |
| Velocidad viento | 1.4 km/h |
| Dirección viento | NW |
| Radiación solar | 0.1 W/m² |
| Temperatura (ºC) | Humedad (%) | Presión (hPa) | Velocidad viento (km/h) | Precipitación (mm) | Radiación solar (W/m²) | |||||||||||||
|---|---|---|---|---|---|---|---|---|---|---|---|---|---|---|---|---|---|---|
| Hora UTC | Aire | Humedad | Presión | Vel. | Dir. | Vel. Max | Dir. | Intent. máx 5 min. | Rad. Sol. | |||||||||
| 00:05 | 12.0 | 97.3 | 1011.8 | 0.2 | WNW | 0.2 | WNW | 0.0 | 0.1 | |||||||||
| 00:10 | 11.9 | 97.3 | 1011.7 | 0.7 | WNW | 2.8 | WNW | 0.0 | 0.1 | |||||||||
| 00:15 | 11.8 | 97.3 | 1011.6 | 1.6 | NW | 2.8 | WNW | 0.0 | 0.1 | |||||||||
| 00:20 | 11.7 | 97.4 | 1011.5 | 0.6 | NW | 2.1 | NW | 0.0 | 0.1 | |||||||||
| 00:25 | 11.6 | 97.3 | 1011.4 | 0.0 | NNE | 0.0 | NW | 0.0 | 0.1 | |||||||||
| 00:30 | 11.4 | 97.2 | 1011.4 | 0.2 | SE | 1.8 | SE | 0.0 | 0.1 | |||||||||
| 00:35 | 11.3 | 97.2 | 1011.3 | 0.1 | NE | 1.4 | NE | 0.0 | 0.1 | |||||||||
| 00:40 | 11.3 | 97.4 | 1011.3 | 0.8 | WNW | 3.2 | WNW | 0.0 | 0.1 | |||||||||
| 00:45 | 11.1 | 97.3 | 1011.3 | 2.6 | WNW | 4.2 | NW | 0.0 | 0.1 | |||||||||
| 00:50 | 11.0 | 97.3 | 1011.3 | 3.0 | WNW | 4.2 | W | 0.0 | 0.1 | |||||||||
| 00:55 | 10.9 | 97.4 | 1011.3 | 2.8 | NNW | 3.9 | NNW | 0.0 | 0.1 | |||||||||
| 01:00 | 11.1 | 97.9 | 1011.2 | 3.0 | N | 4.6 | N | 0.0 | 0.1 | |||||||||
| 01:05 | 11.1 | 97.6 | 1011.2 | 3.9 | N | 5.3 | N | 0.0 | 0.1 | |||||||||
| 01:10 | 11.0 | 97.5 | 1011.1 | 1.9 | NNW | 3.5 | N | 0.0 | 0.1 | |||||||||
| 01:15 | 10.7 | 97.3 | 1011.0 | 2.0 | NW | 2.5 | NNW | 0.0 | 0.1 | |||||||||
| 01:20 | 10.6 | 97.4 | 1011.0 | 1.8 | NNW | 2.8 | NW | 0.0 | 0.1 | |||||||||
| 01:25 | 10.5 | 97.6 | 1010.9 | 2.3 | NNW | 2.8 | NW | 0.0 | 0.1 | |||||||||
| 01:30 | 10.5 | 97.7 | 1010.9 | 0.7 | NW | 2.5 | NW | 0.0 | 0.1 | |||||||||
| 01:35 | 10.5 | 97.8 | 1010.9 | 0.2 | NNW | 1.4 | NNW | 0.0 | 0.1 | |||||||||
| 01:40 | 10.4 | 97.8 | 1010.9 | 0.3 | NNW | 1.8 | NNW | 0.0 | 0.1 | |||||||||
| 01:45 | 10.3 | 97.8 | 1011.0 | 0.6 | NNW | 2.5 | NNW | 0.0 | 0.1 | |||||||||
| 01:50 | 10.3 | 97.9 | 1011.0 | 1.4 | NW | 2.8 | WNW | 0.0 | 0.1 | |||||||||
| Máxima | 12.0 | 97.9 | 1011.8 | 3.9 | N | 5.3 | N | 0.0 | 0.1 | |||||||||
| Mínima | 10.3 | 97.2 | 1010.9 | |||||||||||||||
| Total | 0.0 | |||||||||||||||||